User: anonymous   Login
Location: Unspecified
(0.0000°N, 0.0000°E)
Time: 16:43:34
(UTC+00:00)
Language:

GONETS M 08 (M18) - Orbit

View from above orbital plane
View from above orbital plane
View from above satellite
View from above satellite

Ground track
Ground track

The orbit data is extracted from the following two-line orbital elements,

1 40061U 14036A   19016.72633977 -.00000003  00000-0 -94448-4 0  9994
2 40061  82.5099 189.7879 0028708 298.3629  61.4555 12.42884650205990
Epoch (UTC): 16 January 2019 17:25:55
Eccentricity: 0.0028708
inclination: 82.5099°
perigee height: 1472 km
apogee height: 1517 km
right ascension of ascending node: 189.7879°
argument of perigee: 298.3629°
revolutions per day: 12.42884650
mean anomaly at epoch: 61.4555°
orbit number at epoch: 20599

The dashed part of the orbit path shows where the satellite is in the earth's shadow,  

DLR